User: anonymous   Login
Location: Beekmeers
(50.8953°N, 3.6968°E)
Time: 04:46:35
(UTC+00:00)
Language:

Cosmos 1733 Rocket - Orbit

View from above orbital plane
View from above orbital plane
View from above satellite
View from above satellite

Ground track
Ground track

The orbit data is extracted from the following two-line orbital elements,

1 16612U 86018B   24204.55419780  .00001196  00000-0  13557-3 0  9991
2 16612  82.5157  23.1530 0016017 230.1918 129.7889 14.85513157954944
Epoch (UTC): 22 July 2024 13:18:02
Eccentricity: 0.0016017
inclination: 82.5157°
perigee height: 601 km
apogee height: 623 km
right ascension of ascending node: 23.1530°
argument of perigee: 230.1918°
revolutions per day: 14.85513157
mean anomaly at epoch: 129.7889°
orbit number at epoch: 95494

The dashed part of the orbit path shows where the satellite is in the earth's shadow,  

DLR